Regional Weather Roundup
Issued by NWS

Home | Current Version | Previous Version | Graphics & Text | Print | Product List | Glossary On
Versions: 1 2 3 4 5 6 7 8 9 10 11 12 13 14 15 16 17 18 19 20 21 22 23 24 25 26 27 28 29 30 31 32 33 34 35 36 37 38 39 40 41 42 43 44 45 46 47 48 49 50
000
ASUS43 KFSD 230002
RWRSD

WEATHER ROUNDUP FOR SOUTH DAKOTA
NATIONAL WEATHER SERVICE SIOUX FALLS SD
700 PM CDT THU JUN 22 2017

NOTE: "FAIR" INDICATES FEW OR NO CLOUDS BELOW 12,000 FEET WITH NO
SIGNIFICANT WEATHER AND/OR OBSTRUCTIONS TO VISIBILITY.


SDZ001>005-009-010-012>017-230100-
NORTHWEST AND NORTH CENTRAL SOUTH DAKOTA

CITY           SKY/WX    TMP DP  RH WIND       PRES   REMARKS
BUFFALO          N/A     71  32  23 NW29G38   29.89F
FAITH            N/A     73  36  25 N17       29.90R
MOBRIDGE       MOSUNNY   77  36  22 NW13      29.80S
$$

SDZ012>016-024>037-041>051-057-063-072>074-230100-
SOUTHWEST AND SOUTH CENTRAL SOUTH DAKOTA

CITY           SKY/WX    TMP DP  RH WIND       PRES   REMARKS
RAPID CTY ARPT MOSUNNY   77  34  21 N21       29.92R
PIERRE         SUNNY     78  45  30 NW9       29.82F
CUSTER         PTSUNNY   65  37  35 SE8       30.03R
ELLSWORTH AFB  SUNNY     77  35  21 N25G31    29.90F
PHILIP         MOSUNNY   80  38  22 N13G22    29.87R
PINE RIDGE     SUNNY     77  44  30 NE7       29.92R
SPEARFISH      FAIR      70  37  30 NW12      29.98S
WINNER         FAIR      80  46  30 N12       29.85S
$$

SDZ004>011-016>023-039-040-230100-
NORTHEAST SOUTH DAKOTA

CITY           SKY/WX    TMP DP  RH WIND       PRES   REMARKS
ABERDEEN       MOSUNNY   79  40  24 NW17G28   29.78S
WATERTOWN      SUNNY     72  56  57 SW9       29.79F
SISSETON         N/A     79  40  24 NW22      29.74S
$$

SDZ017-020-022-023-036>040-048>070-230100-
SOUTHEAST SOUTH DAKOTA

CITY           SKY/WX    TMP DP  RH WIND       PRES   REMARKS
SIOUX FALLS    CLOUDY    72  60  66 N14       29.78R
HURON          SUNNY     76  52  43 CALM      29.80F
CHAMBERLAIN    SUNNY     78  49  35 N8        29.84S
MITCHELL       PTSUNNY   74  47  38 N13       29.82R
YANKTON        CLOUDY    75  64  68 N13G20    29.77R
$$

ABBREVIATIONS USED IN REMARKS
   TC - TEMPERATURE IN CELSIUS
  WCI - WIND CHILL INDEX
   HX - HEAT INDEX
  VSB - VISIBILITY





USA.gov is the U.S. government's official web portal to all federal, state and local government web resources and services.